Vertical_Velocity
-1 -1 -2 -1 -1 -2 -1 -1 0 -1 -1 -1 -0 -1 -0 -1 -1 -2 -4 -9 -3 -3 0 8 -5 -13 -25 31 -14 40 -7 10 13 -2 4 -9 17 -17 56 -6 -7 10 4 6 -2
-1 -0 -1 -1 -1 -0 -1 -1 -1 -1 -1 -1 -1 -1 -0 -1 -1 -2 1 -3 -4 -2 2 -10 34 -1 14 -11 14 -45 30 10 -18 11 27 -23 -6 51 -81 26 -7 -5 -1 -3 -1
-1 -1 -1 -1 -1 -0 -0 -1 -1 -2 -1 -1 -1 -0 -0 0 -3 -3 -1 -3 -2 -1 0 -31 -17 11 20 27 -13 4 0 -7 -0 -6 -24 16 -11 -3 23 -2 13 -5 -2 -7 4
-1 -1 -1 -2 -2 -2 -1 0 -1 -1 -2 -0 -0 -0 0 -0 20 1 -3 -3 -3 -3 2 -29 -1 11 42 29 -26 26 -10 -6 -2 -14 -0 -18 1 -18 -10 2 2 -1 -3 1 -5
-1 -1 -1 -2 -2 -2 -2 -0 -1 -1 -1 -1 0 0 0 -2 0 -2 -4 -4 -4 -3 5 -4 33 -10 42 -10 -8 20 -7 -9 -29 34 -10 -4 6 8 -5 5 -8 -6 -4 -7 5
-1 -1 -1 -1 -1 -2 -1 -1 -1 -0 -1 -1 -0 -0 -1 -2 -7 -2 -1 -3 -4 -2 -10 1 19 -28 9 7 16 -21 -6 -6 4 -12 14 -1 10 -20 -3 2 -1 -5 -10 -17 14
-2 -2 -1 -1 -1 -1 -1 -1 -1 -0 -1 -1 -1 -1 -0 1 -2 -2 -0 -0 -1 -6 -3 3 -10 12 13 43 -19 -7 12 8 -4 -17 -9 -12 -24 29 5 2 -3 4 -0 -1 -2
-1 -1 -1 -1 -1 -1 -1 -1 -1 -1 -1 -1 -0 -0 -2 -3 -2 -1 -2 -1 -3 -3 -4 15 -11 -15 -11 -5 -15 2 40 2 -7 -18 -6 1 4 9 -5 14 -6 -6 -2 -4 -6
-1 -1 -2 -1 -1 -1 -1 -0 -1 -1 -1 -1 -1 -2 11 1 -2 -1 -1 -3 -2 -5 -3 -5 -5 -1 5 -1 23 35 -26 15 -0 -18 22 -5 -2 -20 15 -25 56 -21 -2 1 -1
-1 -1 -2 -1 -1 0 -1 -1 -1 -1 -0 -1 -1 -5 2 -2 -4 -0 -1 4 -2 0 -1 -6 -9 -6 -4 20 -11 -43 42 -7 13 4 -9 5 -4 -5 -4 -3 3 -5 -8 -1 -4
-1 -2 -2 -1 -1 -0 -0 -1 -4 -13 -2 -1 7 -8 -10 16 -3 -3 -2 -4 7 1 -2 -7 1 -9 32 10 43 20 -10 -13 12 -12 3 -7 -3 -2 -3 20 21 -12 5 -2 -15
-1 -1 -2 -1 -1 -0 0 1 -2 -5 -5 -4 -7 -1 -8 2 -1 0 -0 -2 -1 -1 -8 27 -15 -7 34 -0 -6 7 0 10 4 -10 -9 4 10 -9 -1 -1 -0 -0 27 11 -5
-1 -2 -1 -1 -1 -1 -1 -1 -1 -0 -4 8 -3 0 0 -3 -0 -1 -6 -5 -8 -1 -3 5 -6 -10 -13 12 -9 -12 -11 26 -2 12 -9 51 -57 47 13 23 -0 -6 -10 -7 21
-1 -2 -2 0 -1 1 -1 -0 -0 -0 -3 7 -5 -3 3 -6 3 2 -11 -8 15 -4 -3 -10 5 -12 3 -12 2 12 30 -7 -10 -2 4 10 6 5 -14 22 -3 5 6 2 -16
-1 -1 -3 -1 1 -1 -7 1 -2 -0 8 18 2 20 -8 -13 10 -2 -14 19 6 -8 7 -11 -22 21 -14 -5 12 -14 30 -13 15 -2 4 44 -16 6 -75 9 1 -0 -5 2 -2
-2 -1 -3 -0 -1 -2 2 -1 -0 3 1 14 -13 -8 1 -3 -12 0 -4 -4 13 15 -6 9 11 3 -9 -9 -12 -10 -1 -2 -8 1 17 6 -15 -9 -8 12 -7 3 -1 -1 1
-1 -2 -2 -2 -6 -3 -1 0 6 5 3 12 -6 0 -1 -7 14 -7 -2 -5 2 2 0 -8 -1 -11 -12 5 11 -1 1 -2 -5 1 -2 -3 -13 -17 -11 11 4 2 -4 4 -4
-1 -2 -2 -0 -2 -1 2 -2 9 -14 -2 -1 2 2 -2 8 9 -3 -0 4 -15 5 39 -2 19 -11 -10 -11 1 3 15 18 -5 1 -16 19 -4 -1 27 8 9 6 -3 -0 2
-0 -1 -2 1 -0 0 0 -1 -17 24 15 -11 12 8 -2 24 12 -3 -5 -7 7 -15 5 31 14 57 20 14 -8 -27 21 37 11 42 12 5 7 5 7 2 6 10 5 3 -0
-0 -0 -3 0 1 -0 -1 -18 31 13 -16 13 -2 0 -1 11 -14 -5 4 -4 -7 -8 -5 7 9 -43 34 -6 4 4 25 -2 14 1 -1 7 0 3 -7 57 7 1 3 7 1
-1 -3 -9 0 2 -1 -11 -15 3 11 -5 -10 6 27 13 9 -11 18 -0 -7 -14 11 -4 1 12 -25 -27 -4 -12 14 -13 -2 11 -11 -5 1 -0 -53 -93 -31 8 4 -4 3 4
-0 10 0 -3 -1 -2 -5 -14 6 -3 2 -23 0 9 -83 32 25 -7 -30 0 -34 12 -3 -21 3 33 -35 -0 39 -8 -14 -18 -6 -9 -18 2 2 6 -23 12 14 -0 3 -4 4
1 35 -8 -1 -5 -4 -14 -21 33 3 -20 10 -19 -1 17 72 -79 24 5 -19 -10 -16 -2 27 0 -3 -1 16 17 31 58 50 68 -25 -14 1 6 -16 30 26 17 3 -5 -4 3
-2 29 -10 -7 -4 -6 2 13 0 -13 -9 15 15 1 14 2 30 -7 27 -19 3 14 -18 -3 -11 38 2 -4 -33 -15 15 -4 30 18 28 2 3 21 14 0 0 0 -11 6 1
1 24 53 0 -14 -12 -4 -0 7 -7 -18 1 -25 -7 -6 -5 -15 -71 64 -5 1 -4 -17 -11 -4 42 -3 -5 -23 -42 5 -18 -75 39 5 5 22 -15 10 10 -1 -5 6 -0 -1
-3 -6 -4 -15 12 -17 25 -13 -4 -9 35 -29 -4 4 -15 72 -6 -6 11 72 10 -17 -7 -8 -11 13 -6 -10 -36 -22 16 5 -10 0 12 -7 35 11 3 -4 4 7 3 -4 -4
-11 -4 -7 -11 -6 11 -14 2 -8 -11 26 2 28 -10 92 -41 42 -23 23 -88 -41 52 21 -11 16 13 -10 61 9 5 16 19 10 9 -12 7 5 -0 -3 3 5 2 -8 -6 -1
Height
3180 3180 3179 3178 3177 3176 3174 3172 3170 3169 3168 3168 3167 3168 3169 3171 3173 3173 3174 3177 3180 3182 3184 3186 3186 3188 3188 3190 3193 3193 3191 3188 3188 3188 3190 3189 3187 3185 3187 3186 3180 3181 3180 3180 3181
3180 3179 3178 3177 3176 3175 3173 3171 3170 3168 3167 3166 3166 3167 3170 3172 3173 3174 3177 3178 3181 3183 3185 3184 3192 3192 3192 3193 3194 3191 3191 3190 3191 3190 3190 3189 3188 3186 3181 3186 3180 3181 3182 3180 3183
3179 3178 3177 3176 3175 3174 3172 3171 3170 3168 3167 3166 3166 3168 3171 3173 3175 3175 3178 3180 3182 3184 3186 3186 3190 3191 3193 3193 3193 3193 3193 3192 3192 3192 3191 3190 3189 3189 3187 3187 3185 3182 3182 3183 3186
3178 3178 3177 3176 3175 3174 3172 3171 3169 3168 3167 3166 3167 3169 3172 3174 3179 3176 3178 3181 3183 3185 3187 3188 3189 3192 3192 3193 3193 3193 3194 3194 3193 3192 3192 3190 3190 3189 3188 3188 3187 3184 3183 3186 3188
3178 3177 3176 3175 3174 3173 3172 3171 3169 3168 3168 3168 3169 3170 3173 3175 3177 3176 3178 3182 3184 3186 3187 3188 3193 3193 3193 3194 3193 3193 3194 3194 3193 3192 3192 3192 3193 3193 3191 3190 3188 3185 3185 3186 3189
3177 3176 3175 3174 3173 3172 3172 3171 3169 3169 3169 3169 3170 3171 3174 3177 3176 3177 3179 3182 3185 3187 3188 3192 3194 3194 3194 3193 3194 3194 3194 3194 3193 3193 3192 3191 3189 3188 3195 3191 3188 3187 3186 3188 3191
3175 3175 3174 3173 3173 3172 3171 3171 3170 3169 3169 3170 3170 3172 3174 3176 3176 3177 3179 3182 3186 3188 3191 3195 3194 3194 3194 3194 3193 3192 3193 3193 3193 3193 3191 3192 3192 3196 3197 3192 3191 3192 3191 3193 3194
3174 3173 3173 3172 3172 3171 3171 3170 3170 3169 3169 3170 3171 3172 3174 3174 3176 3177 3179 3182 3185 3188 3190 3192 3193 3193 3193 3193 3192 3190 3191 3191 3192 3192 3191 3192 3194 3195 3194 3193 3192 3193 3193 3194 3195
3172 3171 3171 3170 3170 3170 3170 3170 3169 3169 3169 3170 3171 3172 3176 3174 3175 3177 3179 3183 3185 3188 3190 3190 3192 3193 3192 3192 3191 3189 3190 3189 3190 3191 3191 3191 3191 3191 3192 3190 3179 3187 3194 3195 3196
3169 3168 3168 3168 3169 3169 3169 3169 3169 3170 3170 3170 3172 3175 3173 3174 3174 3177 3179 3184 3187 3189 3191 3192 3193 3192 3189 3187 3191 3191 3188 3188 3189 3190 3191 3191 3190 3189 3189 3190 3186 3188 3194 3196 3196
3167 3166 3166 3166 3167 3167 3169 3170 3172 3171 3169 3170 3172 3172 3174 3176 3174 3175 3179 3182 3186 3189 3190 3192 3193 3188 3188 3187 3189 3189 3189 3188 3187 3188 3189 3189 3192 3191 3189 3191 3192 3193 3194 3193 3193
3164 3164 3164 3164 3165 3166 3167 3169 3169 3169 3168 3168 3169 3172 3173 3174 3174 3176 3178 3182 3184 3187 3189 3191 3190 3186 3186 3187 3188 3188 3187 3184 3185 3185 3187 3189 3197 3198 3195 3192 3190 3191 3194 3194 3190
3161 3161 3161 3163 3163 3165 3166 3167 3167 3168 3168 3168 3168 3169 3172 3172 3174 3175 3177 3180 3183 3186 3187 3186 3185 3185 3186 3187 3188 3187 3185 3183 3184 3184 3184 3189 3189 3196 3196 3198 3194 3191 3189 3189 3185
3158 3159 3159 3161 3164 3163 3165 3166 3167 3168 3168 3167 3167 3168 3171 3171 3174 3175 3175 3181 3183 3184 3185 3186 3183 3185 3186 3187 3187 3183 3183 3183 3183 3182 3178 3180 3199 3205 3200 3195 3197 3194 3192 3191 3182
3155 3156 3157 3159 3161 3162 3163 3164 3166 3168 3166 3163 3165 3167 3168 3171 3172 3174 3175 3180 3180 3182 3185 3183 3183 3183 3185 3185 3185 3184 3182 3182 3180 3179 3177 3176 3183 3194 3193 3198 3198 3194 3192 3193 3189
3152 3153 3155 3157 3158 3160 3162 3164 3166 3172 3160 3161 3162 3164 3168 3169 3171 3172 3175 3177 3179 3180 3180 3179 3180 3181 3182 3183 3183 3183 3182 3180 3178 3175 3171 3165 3174 3188 3192 3197 3197 3194 3191 3190 3190
3149 3151 3152 3154 3156 3158 3160 3164 3170 3164 3158 3158 3161 3163 3166 3168 3170 3171 3173 3175 3177 3178 3178 3178 3178 3179 3180 3180 3180 3180 3179 3173 3177 3171 3166 3165 3173 3182 3188 3198 3195 3191 3190 3188 3188
3147 3148 3149 3152 3154 3156 3160 3165 3164 3156 3154 3154 3158 3162 3164 3166 3168 3170 3172 3173 3174 3174 3172 3172 3172 3173 3175 3177 3176 3175 3173 3169 3174 3173 3166 3164 3176 3186 3194 3197 3196 3190 3188 3186 3186
3144 3146 3148 3150 3152 3155 3159 3161 3155 3153 3152 3153 3156 3159 3162 3163 3165 3167 3169 3170 3171 3172 3170 3166 3167 3169 3173 3172 3175 3172 3169 3167 3162 3159 3156 3169 3181 3188 3197 3199 3199 3195 3189 3187 3186
3143 3144 3147 3148 3151 3154 3156 3154 3153 3154 3152 3152 3154 3156 3158 3159 3163 3163 3165 3166 3167 3168 3169 3168 3168 3168 3172 3171 3171 3170 3171 3168 3163 3164 3169 3179 3185 3191 3189 3199 3200 3194 3194 3187 3185
3144 3145 3146 3147 3149 3152 3153 3153 3154 3155 3155 3154 3153 3153 3154 3154 3158 3160 3161 3163 3164 3165 3167 3167 3165 3169 3170 3169 3168 3170 3170 3171 3175 3179 3189 3186 3189 3186 3184 3190 3196 3192 3189 3187 3185
3144 3146 3146 3147 3150 3151 3152 3153 3154 3154 3155 3155 3153 3152 3155 3152 3154 3157 3158 3156 3161 3164 3166 3167 3165 3162 3163 3163 3165 3168 3169 3171 3171 3174 3180 3180 3187 3185 3187 3194 3193 3188 3183 3184 3183
3143 3147 3143 3145 3148 3151 3151 3151 3152 3153 3153 3154 3153 3152 3149 3150 3154 3155 3154 3154 3158 3162 3165 3166 3164 3163 3160 3164 3163 3166 3169 3171 3169 3168 3170 3174 3182 3173 3188 3190 3188 3184 3180 3182 3180
3143 3147 3144 3143 3144 3146 3147 3148 3150 3151 3150 3151 3152 3152 3151 3149 3150 3152 3153 3158 3157 3159 3161 3164 3164 3163 3164 3171 3172 3172 3167 3169 3167 3160 3163 3166 3170 3179 3186 3186 3181 3179 3181 3182 3178
3142 3143 3137 3143 3144 3145 3147 3147 3147 3148 3149 3151 3151 3150 3149 3149 3148 3148 3153 3152 3157 3155 3160 3164 3165 3164 3162 3162 3164 3171 3170 3166 3171 3169 3167 3165 3168 3172 3177 3179 3178 3180 3178 3176 3174
3137 3136 3136 3138 3142 3144 3144 3146 3146 3145 3147 3149 3150 3150 3149 3148 3146 3147 3147 3147 3155 3156 3159 3161 3162 3163 3160 3161 3169 3174 3169 3165 3164 3168 3168 3170 3171 3171 3171 3174 3176 3176 3174 3171 3169
3134 3137 3138 3139 3142 3143 3142 3143 3143 3144 3143 3145 3148 3148 3149 3141 3146 3149 3152 3148 3153 3155 3157 3160 3158 3159 3159 3161 3154 3163 3161 3163 3162 3164 3167 3171 3172 3170 3170 3171 3171 3170 3167 3167 3166